IZ1GCT Weather Reports


Display with metric or nautical units.
time (UTC)temp
F
wind
direction
speed
MPH
gust
MPH
rain 1hr
in
rain 24hr
in
rain mn
in
humidity
%
barometer
mb
20260504043058 54 158 1.0 2.0 0.00 0.00 0.00 80 1019.5
20260504042558 54 158 0.0 1.0 0.00 0.00 0.00 79 1019.5
20260504042059 54 158 0.0 0.0 0.00 0.00 0.00 78 1019.5
20260504041559 54 158 0.0 1.0 0.00 0.00 0.00 78 1019.4
20260504041059 54 135 0.0 0.0 0.00 0.00 0.00 77 1019.5
20260504040559 55 143 0.0 1.0 0.00 0.00 0.00 74 1019.5
20260504035558 55 135 0.0 0.0 0.00 0.00 0.00 74 1019.5
20260504035058 54 135 0.0 0.0 0.00 0.00 0.00 78 1019.5
20260504034557 54 135 1.0 2.0 0.00 0.00 0.00 79 1019.5
20260504034059 54 158 0.0 1.0 0.00 0.00 0.00 79 1019.4
20260504033558 54 158 1.0 2.0 0.00 0.00 0.00 78 1019.4
20260504033058 54 135 0.0 0.0 0.00 0.00 0.00 78 1019.5
20260504032557 54 135 0.0 0.0 0.00 0.00 0.00 78 1019.5
20260504032057 54 158 1.0 1.0 0.00 0.00 0.00 78 1019.4
20260504031558 54 158 1.0 2.0 0.00 0.00 0.00 78 1019.5
20260504031059 54 158 3.0 5.0 0.00 0.00 0.00 77 1019.5
20260504030558 54 158 0.0 0.0 0.00 0.00 0.00 76 1019.5
20260504030058 55 158 0.0 0.0 0.00 0.00 0.00 72 1019.6
20260504025557 55 158 0.0 0.0 0.00 0.00 0.00 72 1019.7
20260504025059 55 158 0.0 0.0 0.00 0.00 0.00 71 1019.6
20260504024558 56 135 0.0 0.0 0.00 0.00 0.00 71 1019.7
20260504024057 56 158 1.0 2.0 0.00 0.00 0.00 71 1019.6
20260504023557 56 135 1.0 1.0 0.00 0.00 0.00 72 1019.7
20260504023058 55 135 1.0 3.0 0.00 0.00 0.00 72 1019.7
20260504022557 55 140 1.0 2.0 0.00 0.00 0.00 73 1019.8
20260504022058 55 139 2.0 3.0 0.00 0.00 0.00 74 1019.8
20260504021558 55 135 0.0 1.0 0.00 0.00 0.00 73 1019.9
20260504021058 55 135 0.0 0.0 0.00 0.00 0.00 73 1019.9
20260504020558 55 135 0.0 0.0 0.00 0.00 0.00 73 1019.9
20260504020049 55 135 0.0 0.0 0.00 0.00 0.00 72 1019.8
20260504015549 55 135 0.0 0.0 0.00 0.00 0.00 71 1019.8
20260504015048 56 135 0.0 0.0 0.00 0.00 0.00 70 1019.8
20260504014550 56 158 0.0 0.0 0.00 0.00 0.00 70 1019.9
20260504014049 57 135 1.0 3.0 0.00 0.00 0.00 70 1019.9
20260504013549 57 135 5.0 6.0 0.00 0.00 0.00 70 1019.8
20260504013048 56 135 2.0 5.0 0.00 0.00 0.00 72 1019.8
20260504012550 56 135 2.0 3.0 0.00 0.00 0.00 74 1019.8
20260504012049 54 135 0.0 2.0 0.00 0.00 0.00 76 1019.9
20260504011548 54 158 0.0 1.0 0.00 0.00 0.00 78 1019.8
20260504011050 54 135 0.0 1.0 0.00 0.00 0.00 77 1019.9
20260504010549 55 135 0.0 1.0 0.00 0.00 0.00 74 1019.9
20260504010049 55 135 0.0 0.0 0.00 0.00 0.00 73 1019.9
20260504005548 55 135 0.0 0.0 0.00 0.00 0.00 73 1019.9
20260504005048 55 112 0.0 0.0 0.00 0.00 0.00 72 1019.8
20260504004548 55 122 1.0 1.0 0.00 0.00 0.00 71 1019.9
20260504004049 56 121 0.0 2.0 0.00 0.00 0.00 71 1019.8
20260504003549 56 158 1.0 5.0 0.00 0.00 0.00 71 1019.9
20260504003048 56 158 3.0 6.0 0.00 0.00 0.00 71 1019.9
20260504002550 56 158 2.0 3.0 0.00 0.00 0.00 71 1020.0
20260504002049 57 137 0.0 1.0 0.00 0.00 0.00 71 1019.9
20260504001548 57 135 2.0 3.0 0.00 0.00 0.00 70 1019.9
20260504001048 57 135 2.0 3.0 0.00 0.00 0.00 70 1019.9
20260504000549 57 135 1.0 5.0 0.00 0.00 0.00 71 1020.0
20260504000049 56 135 1.0 2.0 0.00 0.00 0.00 73 1020.2
20260503235548 56 135 2.0 5.0 0.00 0.00 0.00 74 1020.3
20260503235048 55 135 1.0 3.0 0.00 0.00 0.00 74 1020.4
20260503234549 55 158 0.0 0.0 0.00 0.00 0.00 74 1020.6
20260503234050 55 158 0.0 0.0 0.00 0.00 0.00 75 1020.5
20260503233549 55 158 0.0 0.0 0.00 0.00 0.00 75 1020.5
20260503233048 55 158 0.0 0.0 0.00 0.00 0.00 74 1020.6
20260503232549 55 135 0.0 0.0 0.00 0.00 0.00 74 1020.6
20260503232049 55 135 0.0 0.0 0.00 0.00 0.00 73 1020.7
20260503231549 56 135 0.0 0.0 0.00 0.00 0.00 72 1020.7
20260503231048 56 135 0.0 0.0 0.00 0.00 0.00 72 1020.7
20260503230548 56 158 2.0 5.0 0.00 0.00 0.00 71 1020.8
20260503230049 56 158 2.0 3.0 0.00 0.00 0.00 71 1020.8
20260503225548 56 158 0.0 1.0 0.00 0.00 0.00 71 1020.9
20260503225048 56 158 0.0 0.0 0.00 0.00 0.00 71 1020.8
20260503224549 57 158 0.0 0.0 0.00 0.00 0.00 71 1020.8
20260503224049 57 158 1.0 2.0 0.00 0.00 0.00 71 1020.7
20260503223549 57 156 1.0 3.0 0.00 0.00 0.00 71 1020.7
20260503223048 57 135 1.0 1.0 0.00 0.00 0.00 71 1020.7
20260503222548 56 148 0.0 1.0 0.00 0.00 0.00 71 1020.6
20260503222048 57 158 0.0 0.0 0.00 0.00 0.00 71 1020.6
20260503221548 57 158 0.0 1.0 0.00 0.00 0.00 72 1020.7
20260503221049 56 158 0.0 0.0 0.00 0.00 0.00 72 1020.7
20260503220549 56 158 0.0 0.0 0.00 0.00 0.00 72 1020.7
20260503220048 56 158 0.0 0.0 0.00 0.00 0.00 73 1020.8
20260503215548 56 158 1.0 2.0 0.00 0.00 0.00 73 1020.7
20260503215049 56 158 0.0 0.0 0.00 0.00 0.00 73 1020.8
20260503214548 56 158 0.0 0.0 0.00 0.00 0.00 73 1020.8
20260503214048 56 158 0.0 0.0 0.00 0.00 0.00 73 1020.8
20260503213549 56 158 0.0 0.0 0.00 0.00 0.00 73 1020.9
20260503213049 56 158 1.0 2.0 0.00 0.00 0.00 73 1020.9
20260503212548 56 158 0.0 0.0 0.00 0.00 0.00 72 1020.9
20260503212049 57 158 0.0 0.0 0.00 0.00 0.00 71 1020.8
20260503211549 57 144 0.0 0.0 0.00 0.00 0.00 71 1020.8
20260503211048 57 135 0.0 1.0 0.00 0.00 0.00 71 1020.8
20260503210548 57 135 0.0 0.0 0.00 0.00 0.00 71 1020.7
20260503210049 57 158 2.0 3.0 0.00 0.00 0.00 71 1020.7
20260503205548 57 158 3.0 5.0 0.00 0.00 0.00 71 1020.7
20260503205048 57 158 1.0 2.0 0.00 0.00 0.00 71 1020.6
20260503204549 57 158 0.0 1.0 0.00 0.00 0.00 71 1020.6
20260503204049 57 135 0.0 0.0 0.00 0.00 0.00 70 1020.6
20260503203548 57 135 0.0 0.0 0.00 0.00 0.00 70 1020.5
20260503203048 58 155 0.0 1.0 0.00 0.00 0.00 68 1020.6
20260503202549 58 158 2.0 3.0 0.00 0.00 0.00 69 1020.5
20260503202048 58 158 2.0 3.0 0.00 0.00 0.00 70 1020.3
20260503201548 57 158 3.0 5.0 0.00 0.00 0.00 71 1020.4
20260503201048 57 158 1.0 3.0 0.00 0.00 0.00 71 1020.3
20260503200549 58 135 0.0 0.0 0.00 0.00 0.00 71 1020.4
20260503200049 58 135 0.0 0.0 0.00 0.00 0.00 70 1020.3
20260503195549 58 135 0.0 0.0 0.00 0.00 0.00 70 1020.3
20260503195048 58 135 1.0 2.0 0.00 0.00 0.00 70 1020.3
20260503194548 59 158 0.0 0.0 0.00 0.00 0.00 69 1020.2
20260503194049 59 158 0.0 0.0 0.00 0.00 0.00 69 1020.2
20260503193548 59 158 0.0 0.0 0.00 0.00 0.00 69 1020.2
20260503193049 60 158 0.0 0.0 0.00 0.00 0.00 70 1020.3
20260503192549 60 158 0.0 0.0 0.00 0.00 0.00 70 1020.2
20260503192049 60 135 1.0 2.0 0.00 0.00 0.00 69 1020.2
20260503191548 60 135 1.0 2.0 0.00 0.00 0.00 70 1020.3
20260503191048 60 156 3.0 3.0 0.00 0.00 0.00 70 1020.1
20260503190549 61 158 2.0 3.0 0.00 0.00 0.00 70 1020.1
20260503190049 61 158 1.0 2.0 0.00 0.00 0.00 70 1020.0
20260503185548 62 158 1.0 2.0 0.00 0.00 0.00 69 1020.0
20260503185048 62 135 0.0 0.0 0.00 0.00 0.00 68 1020.0
20260503184549 62 135 0.0 1.0 0.00 0.00 0.00 67 1020.0
20260503184049 62 135 0.0 0.0 0.00 0.00 0.00 66 1019.9
20260503183548 62 158 0.0 0.0 0.00 0.00 0.00 67 1019.9
20260503183048 62 158 0.0 1.0 0.00 0.00 0.00 67 1019.8
20260503182549 63 158 1.0 1.0 0.00 0.00 0.00 68 1019.8
20260503182048 63 158 0.0 0.0 0.00 0.00 0.00 68 1019.7
20260503181548 63 158 1.0 1.0 0.00 0.00 0.00 67 1019.6
20260503181047 64 135 0.0 1.0 0.00 0.00 0.00 63 1019.8
20260503180549 64 136 0.0 1.0 0.00 0.00 0.00 63 1019.7
20260503180048 65 158 0.0 1.0 0.00 0.00 0.00 61 1019.8
20260503175547 65 158 0.0 1.0 0.00 0.00 0.00 59 1019.7
20260503175049 65 135 1.0 3.0 0.00 0.00 0.00 55 1019.7
20260503174549 65 135 2.0 3.0 0.00 0.00 0.00 55 1019.7
20260503174048 65 135 1.0 2.0 0.00 0.00 0.00 56 1019.6
20260503173549 65 135 1.0 3.0 0.00 0.00 0.00 59 1019.6
20260503173049 65 135 0.0 1.0 0.00 0.00 0.00 57 1019.7
20260503172548 66 135 1.0 1.0 0.00 0.00 0.00 60 1019.7
20260503172048 66 135 0.0 1.0 0.00 0.00 0.00 59 1019.7
20260503171549 65 158 0.0 0.0 0.00 0.00 0.00 60 1019.8
20260503171048 65 135 0.0 1.0 0.00 0.00 0.00 60 1019.8
20260503170548 66 146 0.0 1.0 0.00 0.00 0.00 60 1019.8
20260503150551 69 147 2.0 3.0 0.00 0.00 0.00 44 1020.3
20260503131049 67 133 5.0 6.0 0.00 0.00 0.00 46 1021.2
20260503130551 67 135 5.0 6.0 0.00 0.00 0.00 45 1021.2
20260503110550 68 135 6.0 10.0 0.00 0.00 0.00 42 1021.2
20260503081550 65 135 2.0 3.0 0.00 0.00 0.00 51 1022.2
20260503081050 66 116 2.0 3.0 0.00 0.00 0.00 52 1022.2
20260503080551 66 118 3.0 5.0 0.00 0.00 0.00 50 1022.0
20260503072549 64 135 2.0 3.0 0.00 0.00 0.00 56 1022.2
20260503072051 63 129 0.0 1.0 0.00 0.00 0.00 63 1022.2
20260503071550 62 135 0.0 0.0 0.00 0.00 0.00 63 1022.1
20260503071049 61 135 0.0 1.0 0.00 0.00 0.00 64 1022.1
20260503070551 61 135 1.0 1.0 0.00 0.00 0.00 63 1022.2
20260503055050 56 138 1.0 2.0 0.00 0.00 0.00 70 1021.9
20260503054550 56 158 1.0 2.0 0.00 0.00 0.00 70 1022.1
20260503054049 56 135 0.0 1.0 0.00 0.00 0.00 69 1022.1
20260503053550 56 135 3.0 5.0 0.00 0.00 0.00 69 1022.1
20260503053049 56 151 1.0 2.0 0.00 0.00 0.00 68 1022.1
20260503052550 55 135 1.0 1.0 0.00 0.00 0.00 68 1022.2
20260503052051 55 135 1.0 2.0 0.00 0.00 0.00 69 1022.3
20260503051550 55 135 2.0 3.0 0.00 0.00 0.00 68 1022.1
20260503051050 54 155 5.0 6.0 0.00 0.00 0.00 72 1022.3
20260503050549 54 143 5.0 6.0 0.00 0.00 0.00 73 1022.3
20260503050050 53 158 3.0 6.0 0.00 0.00 0.00 73 1022.4
20260503045550 53 158 0.0 1.0 0.00 0.00 0.00 73 1022.3
20260503045049 54 135 0.0 0.0 0.00 0.00 0.00 72 1022.4
20260503044551 53 135 1.0 2.0 0.00 0.00 0.00 72 1022.5
20260503044050 53 135 1.0 2.0 0.00 0.00 0.00 72 1022.3
20260503043552 53 158 3.0 6.0 0.00 0.00 0.00 73 1022.2